[[{"header":{"parameterUnit":"m.s-1","parameterCategory":1,"la1":30.2992,"la2":30.254,"lo1":-89.0895,"lo2":-89.0443,"dy":0.0025,"dx":0.0025,"nx":19,"ny":19,"refTime":"2026-05-17T21:00:00:Z","depth":0,"parameterNumber":2,"parameterNumberName":"U-component_of_WINDS"},"data":[0,0,0,-4.2389,-4.2392,-4.2527,-4.2527,-4.271,-4.2712,0,0,0,0,0,0,0,0,0,0,0,-4.2357,-4.2358,-4.2389,-4.2393,-4.2527,-4.2527,-4.271,-4.2712,0,0,0,0,0,0,0,0,0,0,0,-4.2356,-4.2358,-4.236,-4.2393,-4.2527,-4.2527,-4.2709,-4.2604,0,0,0,0,0,0,0,0,0,0,-4.2471,-4.2448,-4.2357,-4.236,-4.2394,-4.2527,-4.2527,-4.2599,-4.261,-4.2654,0,-4.2695,0,-4.2706,-4.2725,-4.2725,0,0,0,-4.2387,-4.2439,-4.2468,-4.236,-4.2395,-4.2526,-4.2465,-4.2605,-4.2618,-4.267,-4.2698,-4.2704,-4.2709,-4.2726,-4.2727,-4.2997,-4.2999,0,0,-4.238,-4.2385,-4.2459,-4.2478,-4.2458,-4.246,-4.2469,-4.2613,-4.2643,-4.2698,-4.2708,-4.2712,-4.2727,-4.2729,-4.2996,-4.2998,0,0,0,-4.2362,-4.238,-4.2406,-4.247,-4.2494,-4.2464,-4.2474,-4.2637,-4.2645,-4.271,-4.2715,-4.2728,-4.2731,-4.2994,-4.2997,-4.3076,0,0,0,-4.2357,-4.2369,-4.2403,-4.2407,-4.2491,-4.2567,-4.2495,-4.2635,-4.2651,-4.2714,-4.2728,-4.2733,-4.2993,-4.2995,-4.307,-4.3112,0,0,0,-4.2345,-4.2368,-4.239,-4.2407,-4.2465,-4.2565,-4.2581,-4.2638,-4.2654,-4.2725,-4.2733,-4.2991,-4.2995,-4.3065,-4.3104,-4.3184,0,0,0,-4.2334,-4.2459,-4.2391,-4.2532,-4.2464,-4.2614,-4.258,-4.2691,-4.2762,-4.2729,-4.2993,-4.2996,-4.3063,-4.3098,-4.3178,-4.3251,-4.3283,0,0,-4.2494,-4.2478,-4.2561,-4.2504,-4.2667,-4.2593,-4.2767,-4.2827,-4.2829,-4.2941,-4.2947,-4.3072,-4.3103,-4.3183,-4.3459,-4.3483,0,0,0,-4.2613,-4.2673,-4.2715,-4.2782,-4.2831,-4.2876,-4.2909,-4.2931,-4.3026,-4.2888,-4.3123,-4.3142,-4.3188,-4.3223,-4.3244,-4.3283,-4.3013,-4.3013,-4.3012,-4.2846,-4.2842,-4.2979,-4.2991,-4.3057,-4.309,-4.3143,-4.3178,-4.3155,-4.3211,-4.3244,-4.3412,-4.3452,-4.3468,-4.3509,-4.3283,-4.3283,-4.3284,-4.3284,-4.3079,-4.3162,-4.3129,-4.3249,-4.3244,-4.3345,-4.3382,-4.3362,-4.3455,-4.3387,-4.3427,-4.3352,-4.3495,-4.3531,-4.329,-4.3289,-4.3288,-4.3288,-4.3287,-4.323,-4.3269,-4.3294,-4.3391,-4.3467,-4.3475,-4.3566,-4.3559,-4.3552,-4.3593,-4.3626,-4.3624,-4.3621,-4.3609,-4.361,-4.3611,-4.3611,-4.3612,-4.3612,-4.3375,-4.3401,-4.3479,-4.3542,-4.3584,-4.3639,-4.3673,-4.3714,-4.3758,-4.3745,-4.3746,-4.3716,-4.3511,-4.3458,-4.3621,-4.3619,-4.3618,-4.3617,-4.3617,-4.361,-4.3556,-4.3675,-4.3718,-4.3791,-4.3866,-4.3856,-4.394,-4.3974,-4.4018,-4.3981,-4.3831,-4.3814,-4.3797,-4.3753,-4.3982,-4.3982,-4.3982,-4.3982,-4.3736,-4.3728,-4.3848,-4.3916,-4.3982,-4.3985,-4.4119,-4.4147,-4.4168,-4.4188,-4.4154,-4.4096,-4.408,-4.4072,-4.4049,-4.4008,-4.4297,-4.4298,-4.4298,-4.388,-4.3877,-4.3993,-4.4012,-4.4069,-4.4118,-4.4243,-4.4322,-4.4334,-4.4311,-4.4203,-4.419,-4.4096,-4.4067,-4.4039,-4.4003,-4.3928,0,0]},{"header":{"parameterUnit":"m.s-1","parameterCategory":1,"la1":30.2992,"la2":30.254,"lo1":-89.0895,"lo2":-89.0443,"dy":0.0025,"dx":0.0025,"nx":19,"ny":19,"refTime":"2026-05-17T21:00:00:Z","depth":0,"parameterNumber":3,"parameterNumberName":"V-component_of_WINDS"},"data":[0,0,0,1.5684,1.5685,1.5717,1.5717,1.5763,1.5764,0,0,0,0,0,0,0,0,0,0,0,1.5677,1.5677,1.5684,1.5685,1.5717,1.5717,1.5763,1.5764,0,0,0,0,0,0,0,0,0,0,0,1.5677,1.5677,1.5678,1.5685,1.5717,1.5717,1.5763,1.5737,0,0,0,0,0,0,0,0,0,0,1.5705,1.5701,1.5677,1.5678,1.5685,1.5717,1.5717,1.5736,1.5739,1.5751,0,1.5762,0,1.5764,1.5767,1.5767,0,0,0,1.5683,1.5698,1.5705,1.5678,1.5685,1.5717,1.5702,1.5737,1.5741,1.5755,1.5763,1.5764,1.5765,1.5768,1.5768,1.5846,1.5846,0,0,1.5681,1.5684,1.5703,1.5707,1.5703,1.5701,1.5703,1.5739,1.5748,1.5763,1.5765,1.5765,1.5768,1.5768,1.5846,1.5846,0,0,0,1.5677,1.5683,1.5688,1.5705,1.5711,1.5702,1.5704,1.5746,1.5748,1.5766,1.5766,1.5768,1.5769,1.5845,1.5846,1.5873,0,0,0,1.5676,1.5681,1.5688,1.569,1.571,1.5729,1.5711,1.5745,1.5749,1.5766,1.5768,1.5769,1.5844,1.5845,1.5871,1.5886,0,0,0,1.5674,1.568,1.5686,1.569,1.5704,1.5728,1.5732,1.5746,1.575,1.5767,1.5769,1.5844,1.5845,1.587,1.5883,1.5909,0,0,0,1.5672,1.5708,1.5686,1.5727,1.5704,1.5745,1.5732,1.5762,1.578,1.5768,1.5845,1.5846,1.5869,1.5881,1.5907,1.5932,1.5942,0,0,1.5719,1.5714,1.5737,1.5719,1.5765,1.574,1.579,1.5803,1.5801,1.5831,1.5833,1.5872,1.5883,1.5908,1.5997,1.6006,0,0,0,1.5753,1.5771,1.5782,1.5801,1.5813,1.5825,1.583,1.5835,1.5861,1.5817,1.5888,1.5894,1.5909,1.592,1.5928,1.5941,1.5851,1.5851,1.5851,1.5824,1.5822,1.5861,1.5863,1.5881,1.5888,1.5903,1.5911,1.5901,1.5919,1.5928,1.5982,1.5996,1.6001,1.6015,1.594,1.594,1.594,1.594,1.5893,1.5918,1.5907,1.5942,1.594,1.5968,1.5977,1.597,1.5997,1.5974,1.5987,1.5963,1.601,1.6022,1.5942,1.5941,1.5941,1.5941,1.5941,1.594,1.5952,1.5959,1.5987,1.601,1.601,1.6038,1.6034,1.603,1.6043,1.6053,1.6053,1.6053,1.6048,1.6048,1.6048,1.6049,1.6049,1.6049,1.5986,1.5993,1.6017,1.6035,1.6048,1.6065,1.6073,1.6086,1.6099,1.6094,1.6094,1.6084,1.6015,1.5999,1.6052,1.6051,1.6051,1.6051,1.605,1.6059,1.6043,1.608,1.6093,1.6115,1.6139,1.6134,1.6161,1.617,1.6184,1.6172,1.6122,1.6115,1.611,1.6096,1.6172,1.6172,1.6172,1.6172,1.6099,1.6096,1.6135,1.6157,1.6178,1.6178,1.6222,1.623,1.6235,1.6241,1.623,1.6211,1.6206,1.6203,1.6195,1.6183,1.6278,1.6278,1.6278,1.6145,1.6144,1.6182,1.6188,1.6206,1.6222,1.6263,1.6289,1.6292,1.6283,1.6247,1.6242,1.6212,1.6202,1.6192,1.618,1.6157,0,0]}]]